Weather Roundup
Issued by NWS Springfield, MO

Home | Current Version | Previous Version | Text Only | Print | Product List | Glossary On
Versions: 1 2 3 4 5 6 7 8 9 10 11 12 13 14 15 16 17 18 19 20 21 22 23 24 25 26 27 28 29 30 31 32 33 34 35 36 37 38 39 40 41 42 43 44 45 46 47 48 49 50
000
NZUS99 KSGF 171107
HRRSGF

HOURLY WEATHER
NATIONAL WEATHER SERVICE SPRINGFIELD MO
600 AM CDT THU APR 17 2014

......SGF CWA......

CITY           SKY/WX    TMP DP  RH WIND       PRES   REMARKS
SPRINGFIELD    PTCLDY    40  31  70 SE7       30.15R
JOPLIN         MOCLDY    42  34  73 CALM      30.16R
WEST PLAINS    CLEAR     41  30  65 SW5       30.19R
ROLLA          CLEAR     42  31  64 S12       30.14R
OSAGE BEACH    PTCLDY    39  28  65 CALM      30.17R
BRANSON        PTCLDY    39  32  75 CALM      30.17S

......SURROUNDING SGF CWA......

CITY           SKY/WX    TMP DP  RH WIND       PRES   REMARKS
CHANUTE        CLOUDY    41  32  70 N12       30.17R
PARSONS        CLOUDY    45  35  68 N9        30.17R
COFFEYVILLE    CLOUDY    45  37  73 N8        30.17R
EMPORIA        CLOUDY    38  29  70 N13       30.18S WCI  30
GROVE OK       MOCLDY    43  36  75 CALM      30.17R
ROGERS AR      PTCLDY    41  34  76 E5        30.16R
SILOAM SPRINGS PTCLDY    43  27  52 E5        30.16R
HARRISON AR    CLEAR     39  31  72 CALM      30.17R
NEAR YELLVILLE CLEAR     34  25  69 CALM      30.19R

......KANSAS AND MISSOURI......

CITY           SKY/WX    TMP DP  RH WIND       PRES   REMARKS
KANSAS CTY INT CLOUDY    38  30  73 NW10      30.19R WCI  31
DOWNTOWN KC    CLOUDY    41  31  67 N9        30.19R
COLUMBIA       PTCLDY    43  31  62 SW7       30.15R
SEDALIA        CLOUDY    42  35  76 N8        30.18R
ST JOSEPH      CLOUDY    37  29  72 N16       30.21S WCI  28
ST LOUIS       PTCLDY    46  29  51 S3        30.17R
SPIRIT OF STL  CLEAR     37  30  75 CALM      30.16R
KIRKSVILLE     CLOUDY    40  34  79 NW13      30.15R WCI  32
WICHITA        CLOUDY    41  29  62 N16G24    30.18R
TOPEKA         CLOUDY    38  29  70 NW13      30.23R WCI  30
OLATHE         CLOUDY    38  30  73 N10       30.18R WCI  31

......TENNESSEE......

CITY           SKY/WX    TMP DP  RH WIND       PRES   REMARKS
MEMPHIS        PTCLDY    45  34  65 SE3       30.21R
NASHVILLE      MOCLDY    46  32  58 S3        30.32R

......ARKANSAS.......

CITY           SKY/WX    TMP DP  RH WIND       PRES   REMARKS
FAYETTEVILLE   PTCLDY    33  33 100 CALM      30.16R
FT SMITH       CLEAR     44  37  76 NE6       30.16R
LITTLE ROCK    CLEAR     42  38  85 CALM      30.20R

......OKLAHOMA.......

CITY           SKY/WX    TMP DP  RH WIND       PRES   REMARKS
TULSA          CLOUDY    46  36  68 CALM      30.14R
PONCA CITY     CLOUDY    47  35  63 NE13      30.14R
MCALESTER      PTCLDY    42  35  76 CALM      30.12R
OKLAHOMA CITY  CLOUDY    51  36  56 NE5       30.10R

......IOWA............

CITY           SKY/WX    TMP DP  RH WIND       PRES   REMARKS
DES MOINES     CLOUDY    35  28  75 NW14      30.18R WCI  26
QUAD CITIES    CLOUDY    44  36  73 W12       30.08R

......ILLINOIS........

CITY           SKY/WX    TMP DP  RH WIND       PRES   REMARKS
QUINCY         PTCLDY    44  30  57 W7        30.13R
CHICAGO        MOCLDY    42  25  50 S14       30.11S



USA.gov is the U.S. government's official web portal to all federal, state and local government web resources and services.